Location: Kellogg
(38.0159°N, 90.0546°W)
Time: 20:15:14
(UTC+00:00)

Transit 4A - Pass Details

Date: 18 September 2024
Orbit: 865 x 978 km, 66.8° (Epoch: 11 October)

Event Time Altitude Azimuth Distance (km) Brightness Sun altitude
Rises 06:48:37 0° 173° (S) 3,432 - -48.4°
Reaches altitude 10° 06:51:28 10° 160° (SSE) 2,507 - -48.2°
Maximum altitude 06:56:06 26° 106° (ESE) 1,679 - -47.8°
Drops below altitude 10° 07:00:51 10° 53° (NE) 2,562 - -47.5°
Exits shadow 07:00:58 10° 52° (NE) 2,602 10.7 -47.5°
Sets 07:03:46 0° 41° (NE) 3,525 11.6 -47.2°
